Voltar ao catálogo

STARLINK-11725

AtivoComunicaçõesVLEO
NORAD 64125·PAYLOAD·🇺🇸 United States

Lançado May 24, 2025 de Cape Canaveral Space Force Station

Loading…

Próximas Passagens (próximas 24 horas)

TLE

AtualizadoSource: CelesTrak SupGP

Época: Sep 14, 2026, 22:37 UTC

1 64125C 25111C   26257.94284722  .00041092  00000+0  31921-3 0  2579
2 64125  43.0004 273.1858 0001571 257.4390  68.2637 15.70814331    15

Acompanhe STARLINK-11725 em tempo real com AllMySat

Download on the App Store